Zurück zum Katalog

CZ-6A DEB

AktivPO
NORAD 54968·DEBRIS·🇨🇳 China

Gestartet Nov 11, 2022 von Taiyuan Satellite Launch Center

Loading…

Nächste Überflüge (nächste 24 Stunden)

TLE

AktuellSource: Space-Track

Epoche: Sep 14, 2026, 11:10 UTC

1 54968U 22151TH  26257.46574065  .00006899  00000-0  98932-3 0  9998
2 54968  98.6275 331.3409 0064995   0.1680 359.9538 14.75422589203488

Verfolge CZ-6A DEB in Echtzeit mit AllMySat

Download on the App Store